CW7056 Olongapo City PH current weather conditions

sailwx.info

Wind from 321

Air temperature 28.9° C
Dewpoint 26.1° C

Last reported at 2014-Jul-23 06:46 UTC.
Time now 2014-Jul-23 07:48 UTC

Location: N 14°51' E 120°16'.
View on Google Maps.

See reports from other nearby stations

  
Tides and Currents Weather Stations Pressure Air Temp Water Temp Dewpoint Dewpoint Depression Visibility Wind Speed Wind Dir Waves Ship Positions
date/time (UTC)wind fromknots sea level pressurealtimeterstation pressurevisibilityair tempwater tempwave heightnotes
2014-Jul-23 06:46 321 28.9
2014-Jul-23 06:36 310 28.9
2014-Jul-23 06:26 360 29.4
2014-Jul-23 06:15 28.9
2014-Jul-23 06:05 360 27.8
2014-Jul-23 05:55 360 27.2
2014-Jul-23 05:45 26.7
2014-Jul-23 05:34 360 26.7
2014-Jul-23 05:24 360 27.2
2014-Jul-23 05:14 345 0 gusting 0 27.2
2014-Jul-23 05:04 334 0 gusting 0 27.2
2014-Jul-23 04:54 337 0 gusting 0 27.2
2014-Jul-23 04:44 332 27.2
2014-Jul-23 04:34 333 0 gusting 0 26.7
2014-Jul-23 04:24 204 0 gusting 0 25.6
2014-Jul-23 04:14 201 25.6
2014-Jul-23 04:03 211 0 gusting 0 27.2
2014-Jul-23 03:52 317 27.8
2014-Jul-23 03:41 317 0 gusting 0 27.2
2014-Jul-23 03:31 315 0 gusting 0 27.2
2014-Jul-23 03:21 317 0 gusting 0 27.2
2014-Jul-23 03:10 314 0 gusting 0 26.7
2014-Jul-23 03:00 296 0 gusting 0 26.7
2014-Jul-23 02:50 298 26.7
2014-Jul-23 02:39 300 26.1
2014-Jul-23 02:27 302 26.1
2014-Jul-23 02:17 300 0 gusting 0 26.1
2014-Jul-23 02:07 301 0 gusting 0 25.6
2014-Jul-23 01:57 303 0 gusting 0 25.6
2014-Jul-23 01:47 304 0 gusting 0 25.0
2014-Jul-23 01:36 305 25.0
2014-Jul-23 01:25 305 25.0
2014-Jul-23 01:15 305 0 gusting 0 25.0
2014-Jul-23 01:05 041 0 gusting 0 25.0
2014-Jul-23 00:55 009 25.0
2014-Jul-23 00:44 009 25.0
2014-Jul-23 00:34 009 25.0
2014-Jul-23 00:24 009 25.0
2014-Jul-23 00:14 238 0 gusting 0 25.0
2014-Jul-23 00:04 232 25.0
2014-Jul-22 23:54 238 0 gusting 0 25.6
2014-Jul-22 23:44 231 25.0
2014-Jul-22 23:34 231 25.0
2014-Jul-22 23:23 230 25.0
2014-Jul-22 23:13 229 0 gusting 0 25.0
2014-Jul-22 23:02 229 25.0
2014-Jul-22 22:52 229 25.0
2014-Jul-22 22:40 229 25.0
2014-Jul-22 22:29 229 25.0
2014-Jul-22 22:19 229 25.0
2014-Jul-22 22:09 229 25.6
2014-Jul-22 21:58 229 25.6
2014-Jul-22 21:36 223 0 gusting 0 25.0
2014-Jul-22 21:25 227 25.0
2014-Jul-22 21:03 229 25.0
2014-Jul-22 20:40 225 25.6
2014-Jul-22 20:30 225 25.6
2014-Jul-22 20:20 229 25.0
2014-Jul-22 20:10 229 0 gusting 0 24.4
2014-Jul-22 19:59 317 24.4
2014-Jul-22 19:49 317 24.4
2014-Jul-22 19:38 317 24.4
2014-Jul-22 19:28 317 24.4
2014-Jul-22 19:18 317 24.4
2014-Jul-22 19:06 317 24.4
2014-Jul-22 18:56 317 24.4
2014-Jul-22 18:46 317 24.4
2014-Jul-22 18:36 317 24.4
2014-Jul-22 18:26 317 24.4
2014-Jul-22 18:16 317 24.4
2014-Jul-22 18:06 317 24.4
2014-Jul-22 17:55 317 24.4
2014-Jul-22 17:45 317 24.4
2014-Jul-22 17:35 317 24.4
2014-Jul-22 17:24 316 24.4
2014-Jul-22 17:13 315 24.4
2014-Jul-22 17:03 317 24.4
2014-Jul-22 16:52 317 24.4
2014-Jul-22 16:42 317 24.4
2014-Jul-22 16:22 317 24.4
2014-Jul-22 16:12 317 24.4
2014-Jul-22 16:02 317 24.4
2014-Jul-22 15:52 317 24.4
2014-Jul-22 15:41 317 24.4
2014-Jul-22 15:31 317 25.0
2014-Jul-22 15:21 317 25.0
2014-Jul-22 15:10 317 25.0
2014-Jul-22 14:59 316 25.0
2014-Jul-22 14:48 315 25.0
2014-Jul-22 14:38 316 25.0
2014-Jul-22 14:28 316 25.0
2014-Jul-22 14:18 316 25.0
2014-Jul-22 14:08 316 25.0
2014-Jul-22 13:58 316 25.0
2014-Jul-22 13:48 316 25.0
2014-Jul-22 13:38 316 25.0
2014-Jul-22 13:27 316 25.0
2014-Jul-22 13:17 316 25.0
2014-Jul-22 13:07 316 25.0
2014-Jul-22 12:54 316 24.4
2014-Jul-22 12:44 316 24.4
2014-Jul-22 12:34 317 24.4
2014-Jul-22 12:24 316 0 gusting 0 24.4
2014-Jul-22 12:13 317 0 gusting 0 24.4
2014-Jul-22 12:03 315 0 gusting 0 24.4
2014-Jul-22 11:53 315 24.4
2014-Jul-22 11:43 312 0 gusting 0 24.4
2014-Jul-22 11:32 241 0 gusting 0 24.4
2014-Jul-22 11:22 229 0 gusting 1 25.0
2014-Jul-22 11:11 227 0 gusting 1 25.0
2014-Jul-22 11:01 230 25.0
2014-Jul-22 10:51 230 25.0
2014-Jul-22 10:41 230 25.0
2014-Jul-22 10:30 230 25.0
2014-Jul-22 10:20 230 25.6
2014-Jul-22 10:10 230 25.6
2014-Jul-22 09:58 230 25.6
2014-Jul-22 09:48 229 25.6
2014-Jul-22 09:26 230 25.6
2014-Jul-22 09:16 231 25.6
2014-Jul-22 09:04 229 25.6
2014-Jul-22 08:54 231 25.6
2014-Jul-22 08:44 232 25.6
2014-Jul-22 08:34 232 0 gusting 0 25.6
2014-Jul-22 08:24 240 25.6
2014-Jul-22 07:13 243 25.6
2014-Jul-22 07:03 242 25.6
2014-Jul-22 06:52 242 25.6
2014-Jul-22 06:42 242 25.6
2014-Jul-22 06:32 242 25.6
2014-Jul-22 06:21 241 25.6
2014-Jul-22 06:11 240 25.6
2014-Jul-22 06:01 236 25.6
2014-Jul-22 05:49 240 25.6
2014-Jul-22 05:39 241 25.6
2014-Jul-22 05:28 241 1 gusting 5 25.0
2014-Jul-22 05:18 248 25.0
2014-Jul-22 05:08 255 25.6
2014-Jul-22 04:58 253 0 gusting 2 25.6
2014-Jul-22 04:47 254 25.6
2014-Jul-22 04:36 360 25.6
2014-Jul-22 04:25 241 25.0
2014-Jul-22 04:15 242 25.0
2014-Jul-22 04:04 242 25.0
2014-Jul-22 03:54 242 25.0
2014-Jul-22 03:44 360 25.0
2014-Jul-22 03:34 360 24.4
2014-Jul-22 03:24 360 23.9
2014-Jul-22 03:14 347 0 gusting 4 23.9
2014-Jul-22 03:04 285 2 gusting 4 24.4
2014-Jul-22 02:44 209 24.4
2014-Jul-22 02:34 209 24.4
2014-Jul-22 02:23 209 24.4
2014-Jul-22 02:13 209 24.4
2014-Jul-22 02:01 209 24.4
2014-Jul-22 01:49 211 24.4
2014-Jul-22 01:39 211 24.4
2014-Jul-22 01:29 211 24.4
2014-Jul-22 01:19 211 24.4
2014-Jul-22 01:09 211 24.4
2014-Jul-22 00:59 211 24.4
2014-Jul-22 00:49 211 24.4
2014-Jul-22 00:39 211 24.4
2014-Jul-22 00:29 211 24.4
2014-Jul-22 00:18 211 24.4
2014-Jul-22 00:07 209 0 gusting 0 24.4
2014-Jul-21 23:57 211 24.4
2014-Jul-21 23:47 221 0 gusting 0 24.4
2014-Jul-21 23:36 218 0 gusting 0 24.4
2014-Jul-21 23:25 219 24.4
2014-Jul-21 23:15 246 0 gusting 0 25.0
2014-Jul-21 23:05 258 25.0
2014-Jul-21 22:54 259 25.0
2014-Jul-21 22:43 259 24.4
2014-Jul-21 22:33 258 24.4
2014-Jul-21 22:23 257 24.4
2014-Jul-21 22:13 259 24.4
2014-Jul-21 22:03 256 24.4
2014-Jul-21 21:53 256 0 gusting 0 24.4
2014-Jul-21 21:43 258 24.4
2014-Jul-21 21:33 255 24.4
2014-Jul-21 21:21 202 0 gusting 0 25.0
2014-Jul-21 21:11 206 25.0
2014-Jul-21 21:01 208 25.6
2014-Jul-21 20:51 209 25.6
2014-Jul-21 20:40 209 25.6
2014-Jul-21 20:29 209 25.6
2014-Jul-21 20:19 209 25.6
2014-Jul-21 20:09 209 25.6
2014-Jul-21 19:58 208 25.6
2014-Jul-21 19:47 208 25.6
2014-Jul-21 19:36 208 25.6
2014-Jul-21 19:26 208 25.6
2014-Jul-21 19:16 208 25.6
2014-Jul-21 19:05 208 25.6
2014-Jul-21 18:55 208 25.6
2014-Jul-21 18:45 208 25.6
2014-Jul-21 18:35 208 25.6
2014-Jul-21 18:25 208 25.6
2014-Jul-21 18:14 208 25.6
2014-Jul-21 18:04 207 25.6
2014-Jul-21 17:54 207 25.6
2014-Jul-21 17:44 207 25.6
2014-Jul-21 17:34 207 25.6
2014-Jul-21 17:23 207 25.6
2014-Jul-21 17:12 207 25.6
2014-Jul-21 17:02 206 25.6
2014-Jul-21 16:51 206 25.6
2014-Jul-21 16:30 205 25.6
2014-Jul-21 16:20 205 25.6
2014-Jul-21 16:10 205 25.6
2014-Jul-21 15:59 203 25.6
2014-Jul-21 15:49 202 25.6
2014-Jul-21 15:39 205 25.6
2014-Jul-21 15:29 204 25.6
2014-Jul-21 15:19 204 25.6
2014-Jul-21 15:09 205 25.0
2014-Jul-21 14:59 205 25.0
2014-Jul-21 14:49 207 25.6
2014-Jul-21 14:39 204 0 gusting 0 25.6
2014-Jul-21 14:29 207 25.6
2014-Jul-21 14:18 207 26.1
2014-Jul-21 14:08 208 26.1
2014-Jul-21 13:58 208 26.7
2014-Jul-21 13:38 208 26.7
2014-Jul-21 13:28 208 26.7
2014-Jul-21 13:18 207 26.7
2014-Jul-21 13:08 207 26.7
2014-Jul-21 12:57 207 26.7
2014-Jul-21 12:45 207 26.7
2014-Jul-21 12:34 207 27.2
2014-Jul-21 12:22 207 27.2
2014-Jul-21 12:12 207 27.2
2014-Jul-21 12:02 206 27.2
2014-Jul-21 11:52 202 0 gusting 0 27.2
2014-Jul-21 11:42 205 27.2
2014-Jul-21 11:32 205 27.2
2014-Jul-21 11:21 205 27.2
2014-Jul-21 11:10 205 27.2
2014-Jul-21 11:00 205 27.2
2014-Jul-21 10:50 205 27.2
2014-Jul-21 10:40 205 27.2
2014-Jul-21 10:27 204 27.2
2014-Jul-21 10:17 204 27.2
2014-Jul-21 10:06 204 27.2
2014-Jul-21 09:56 203 0 gusting 0 27.8
2014-Jul-21 09:46 202 27.8
2014-Jul-21 09:35 202 27.8
2014-Jul-21 09:25 202 27.8
2014-Jul-21 09:15 202 27.8
2014-Jul-21 09:04 202 27.2
2014-Jul-21 08:54 201 0 gusting 0 27.2
2014-Jul-21 08:43 202 27.8
2014-Jul-21 08:33 201 0 gusting 0 27.2
2014-Jul-21 08:23 201 0 gusting 0 27.8
2014-Jul-21 08:11 210 0 gusting 0 28.3
2014-Jul-21 08:01 210 0 gusting 0 28.3
2014-Jul-21 07:51 198 0 gusting 0 28.3
2014-Jul-21 07:41 198 0 gusting 0 28.3
2014-Jul-21 07:31 201 0 gusting 0 28.9
2014-Jul-21 07:20 190 0 gusting 0 28.9
2014-Jul-21 07:10 190 0 gusting 0 29.4
2014-Jul-21 07:00 184 28.9